Regional Weather Roundup
Issued by NWS

Home | Current Version | Previous Version | Text Only | Print | Product List | Glossary On
Versions: 1 2 3 4 5 6 7 8 9 10 11 12 13 14 15 16 17 18 19 20 21 22 23 24 25 26 27 28 29 30 31 32 33 34 35 36 37 38 39 40 41 42 43 44 45 46 47 48 49
000
ASUS42 KKEY 301810
RWRKEY

FLORIDA REGIONAL WEATHER ROUNDUP FOR THE FLORIDA KEYS
NATIONAL WEATHER SERVICE KEY WEST FLORIDA
200 PM EDT SUN AUG 30 2015

...SOUTH FLORIDA AND THE KEYS...

CITY           SKY/WX    TMP DP  RH WIND       PRES   REMARKS
FORT MYERS     CLOUDY    84  76  76 SE5       29.98F HX  93
SW REGIONAL AP CLOUDY    85  76  74 E9        29.98F HX  94
NAPLES         CLOUDY    86  77  74 SE10      29.97F HX  97
MIAMI          CLOUDY    81  76  84 S12G23    30.01F
WEST KENDALL   LGT RAIN  81  79  94 S8          N/A  HX  90
HOMESTEAD      LGT RAIN  81  75  82 SE12      30.01S
MARATHON       CLOUDY    83  77  82 S12G24    29.98F HX  92
BOCA CHICA NAS CLOUDY    84  76  76 S21G28    29.95F HX  93
KEY WEST INTL  CLOUDY    84  76  76 S21       29.95F HX  93

...INTERNATIONAL WEATHER...

CITY           SKY/WX    TMP DP  RH WIND       PRES   REMARKS
NASSAU BAHAMAS PTSUNNY   88  81  79 SE9       30.06F HX 105
CANCUN MEXICO  MOSUNNY   90  81  74 NE12      29.96F HX 108
COZUMEL MEXICO PTSUNNY   81  77  89 SE5       29.97F THUNDER

ADJACENT COASTAL WATERS...

STATION/POSITION TIME  SKY/WX   TEMP    WIND        PRES    WAVE
                                AIR SEA DIR/SP/G            HT/PER
                 (UTC)          (F)     (DEG/KT/KT) (MB)    (FT/S)
PULASKI SHOAL LI 1700                                 N/A
SAND KEY         1750            82     180/ 17     1014.0F
SOMBRERO KEY     NOT AVBL
LONG KEY         1800            84 86  190/ 20/ 24 1016.3F
MOLASSES REEF    1800            81 87  180/ 24/ 27 1015.8F
FOWEY ROCKS      NOT AVBL

$$



USA.gov is the U.S. government's official web portal to all federal, state and local government web resources and services.